EST,Max TemperatureF,Mean TemperatureF,Min TemperatureF,Max Dew PointF,MeanDew PointF,Min DewpointF,Max Humidity, Mean Humidity, Min Humidity, Max Sea Level PressureIn, Mean Sea Level PressureIn, Min Sea Level PressureIn, Max VisibilityMiles, Mean VisibilityMiles, Min VisibilityMiles, Max Wind SpeedMPH, Mean Wind SpeedMPH, Max Gust SpeedMPH,PrecipitationIn, CloudCover, Events, WindDirDegrees
2012-11-1,57,54,50,45,43,41,80,70,59,29.60,29.57,29.55,10,10,10,10,4,21,0.00,7,Rain,243
2012-11-2,53,48,42,43,40,37,86,71,59,29.60,29.57,29.54,10,10,10,8,2,,0.00,6,,296
2012-11-3,52,47,42,39,37,33,79,68,57,29.79,29.69,29.61,10,10,10,10,6,20,0.00,5,,309
2012-11-4,52,44,36,39,36,32,89,70,59,29.93,29.87,29.79,10,10,10,8,4,,0.00,3,,302
2012-11-5,44,42,39,39,34,25,87,73,53,30.11,29.98,29.92,10,10,3,8,6,,0.02,8,Rain,331
2012-11-6,44,38,32,30,25,22,79,61,49,30.23,30.19,30.12,10,10,10,14,3,21,0.00,3,,16
2012-11-7,46,44,41,41,36,29,89,74,55,30.11,29.80,29.57,10,7,2,36,21,52,0.48,8,Rain,44
2012-11-8,55,50,44,52,46,41,97,90,80,29.64,29.43,29.34,10,5,1,25,18,50,1.11,8,Rain,25
2012-11-9,50,46,41,41,35,28,93,70,46,30.11,29.87,29.65,10,10,6,15,11,28,0.03,5,Rain,326
2012-11-10,50,43,35,37,34,28,93,74,54,30.48,30.30,30.12,10,10,9,10,3,20,0.00,0,,298
2012-11-11,55,46,37,51,45,34,97,84,71,30.56,30.52,30.48,10,9,5,12,4,18,0.01,4,,192
2012-11-12,64,58,51,55,53,50,97,88,70,30.53,30.46,30.31,10,8,4,9,6,16,0.01,0,,203
2012-11-13,62,53,44,59,50,41,100,92,83,30.38,30.26,30.21,10,7,2,14,9,25,0.41,8,Rain,272
2012-11-14,46,45,44,41,36,32,89,71,60,30.47,30.43,30.38,10,10,7,15,9,25,0.05,8,Rain,19
2012-11-15,46,44,43,38,37,34,76,72,65,30.38,30.33,30.28,10,10,10,13,9,25,0.00,8,,21
2012-11-16,46,42,39,36,34,32,77,71,63,30.40,30.31,30.25,10,10,10,8,5,16,0.00,6,,16
2012-11-17,48,42,36,37,34,30,82,69,58,30.66,30.56,30.40,10,10,10,10,6,21,0.00,4,,20
2012-11-18,48,46,43,36,33,30,71,63,56,30.69,30.65,30.61,10,10,10,12,8,18,0.00,3,,55
2012-11-19,51,48,46,43,41,37,77,75,71,30.59,30.43,30.25,10,10,10,12,7,17,0.00,7,,47
2012-11-20,48,46,44,41,38,36,80,71,63,30.22,30.15,30.12,10,10,10,13,5,16,0.00,5,,29
2012-11-21,53,50,46,45,41,36,83,74,61,30.23,30.18,30.13,10,10,10,12,8,20,0.00,4,,47
2012-11-22,52,44,36,43,40,34,93,74,66,30.26,30.21,30.14,10,10,8,10,7,17,0.00,4,,48
2012-11-23,52,43,34,47,42,33,97,89,74,30.13,29.92,29.69,10,10,6,7,3,,0.00,3,,206
2012-11-24,48,42,34,48,33,16,100,68,37,29.68,29.60,29.53,10,10,7,13,6,24,0.01,4,Rain,265
2012-11-25,41,36,30,22,18,15,61,49,38,29.90,29.79,29.68,10,10,10,14,9,31,0.00,1,,273
2012-11-26,46,38,30,24,22,19,69,55,37,30.26,30.06,29.90,10,10,10,14,6,24,0.00,0,,282
2012-11-27,42,36,30,37,32,25,93,82,60,30.34,30.27,30.18,10,10,7,9,2,,0.15,7,Rain,53
2012-11-28,45,38,30,39,34,25,93,85,67,30.17,30.11,30.06,10,10,3,13,6,23,0.15,7,Rain,339
2012-11-29,42,35,28,30,26,22,89,66,45,30.28,30.23,30.17,10,10,10,13,5,25,0.00,0,,260
2012-11-30,42,37,32,30,24,20,76,61,53,30.55,30.43,30.25,10,10,10,13,7,21,0.00,5,,15